Location: Newark
(53.2000°N, 6.1000°W)
Time: 23:31:00
(UTC+00:00)

ISS - Pass Details

Date: 03 October 2020
Orbit: 417 x 420 km, 51.6° (Epoch: 29 October)

Event Time Altitude Azimuth Distance (km) Brightness Sun altitude
Rises 19:03:59 0° 280° (W) 2,371 2.3 -11.1°
Reaches altitude 10° 19:06:14 10° 269° (W) 1,505 0.6 -11.4°
Maximum altitude 19:09:13 30° 207° (SSW) 788 -2.2 -11.9°
Enters shadow 19:11:57 12° 146° (SE) 1,408 -1.5 -12.3°
